Weather History for Mullan Pass, ID

Change the Weather History Date:

Monday, May 26, 2014

  Actual Average (K3TH) Record (K3TH)
Temperature  
Mean Temperature 42 °F -  
Max Temperature 50 °F 66 °F 77 °F (1999)
Min Temperature 37 °F 47 °F 46 °F (1998)
Degree Days  
Heating Degree Days 22    
Moisture  
Dew Point 34 °F    
Average Humidity 79    
Maximum Humidity 100    
Minimum Humidity 37    
Precipitation  
Precipitation 0.05 in - - ()
Sea Level Pressure  
Sea Level Pressure 29.98 in    
Wind  
Wind Speed 6 mph (SW)    
Max Wind Speed 14 mph    
Max Gust Speed 26 mph    
Visibility 7 miles    
Events Fog , Rain    
Averages and records for this station are not official NWS values.
T = Trace of Precipitation, MM = Missing Value Source: NWS Daily Summary

Daily Weather History Graph

Daily Weather History Graph

Search for Another Location

Airport:

Trip Planner

Search our weather history database for the weather conditions in past years. The results will help you decide how hot, cold, wet, or windy it might be!

Date:

Astronomy

May. 26, 2014 Rise Set
Actual Time 4:54 AM PDT 8:26 PM PDT
Civil Twilight 4:15 AM PDT 9:04 PM PDT
Nautical Twilight 3:24 AM PDT 9:55 PM PDT
Astronomical Twilight 2:16 AM PDT 11:04 PM PDT
Moon 3:49 AM PDT (5/26) 6:24 PM PDT (5/26)
Length of Visible Light 16h 48m
Length of Day
15h 31m
Waning Crescent, 4% of the Moon is Illuminated
May 26
Waning Crescent
May 28
New
Jun 5
First Quarter
Jun 12
Full
Jun 19
Last Quarter

Hourly Weather History & Observations

Time (PDT) Temp. Windchill Dew Point Humidity Pressure Visibility Wind Dir Wind Speed Gust Speed Precip Events Conditions
12:42 AM 41.0 °F 36.4 °F 35.6 °F 81% 30.05 in 6.0 mi WSW 6.9 mph - 0.02 in Rain Light Rain
12:51 AM 39.2 °F 33.6 °F 35.6 °F 87% 30.04 in 7.0 mi WSW 8.1 mph - 0.02 in Rain Light Rain
12:53 AM 39.9 °F 35.1 °F 36.0 °F 86% 29.86 in 8.0 mi SW 6.9 mph - 0.02 in Rain Light Rain
1:53 AM 39.9 °F 35.8 °F 37.0 °F 89% 29.85 in 10.0 mi SSW 5.8 mph - 0.01 in Rain Light Rain
2:12 AM 39.2 °F 35.0 °F 37.4 °F 93% 30.04 in 10.0 mi SW 5.8 mph - 0.00 in Rain Light Rain
2:48 AM 39.2 °F 35.9 °F 37.4 °F 93% 30.04 in 10.0 mi Variable 4.6 mph - 0.00 in Rain Light Rain
2:53 AM 37.9 °F 33.5 °F 37.0 °F 97% 29.86 in 10.0 mi Variable 5.8 mph - 0.00 in Rain Light Rain
3:53 AM 37.9 °F 33.5 °F 37.0 °F 97% 29.86 in 10.0 mi Variable 5.8 mph - 0.01 in   Unknown
4:53 AM 37.9 °F 34.4 °F 37.9 °F 100% 29.86 in 1.8 mi SW 4.6 mph - 0.00 in   Mist
4:58 AM 37.4 °F 34.9 °F 37.4 °F 100% 30.04 in 0.8 mi SW 3.5 mph - N/A   Mist
5:15 AM 39.2 °F 35.0 °F 37.4 °F 93% 30.04 in 0.2 mi WSW 5.8 mph - N/A Fog Fog
5:29 AM 39.2 °F 34.2 °F 39.2 °F 100% 30.04 in 0.2 mi WSW 6.9 mph - N/A Fog Fog
5:53 AM 39.0 °F 35.7 °F 39.0 °F 100% 29.87 in 0.2 mi SW 4.6 mph - 0.00 in Fog Fog
6:53 AM 39.9 °F 35.1 °F 39.9 °F 100% 29.88 in 0.2 mi Variable 6.9 mph - 0.00 in Fog , Rain Light Rain
7:36 AM 39.2 °F 35.0 °F 39.2 °F 100% 30.06 in 0.2 mi Variable 5.8 mph - 0.01 in Fog , Rain Light Rain
7:53 AM 39.9 °F 33.9 °F 39.9 °F 100% 29.90 in 0.2 mi WSW 9.2 mph - 0.01 in Fog Fog
8:15 AM 39.2 °F 37.0 °F 39.2 °F 100% 30.07 in 0.5 mi Variable 3.5 mph - N/A Fog Fog
8:20 AM 39.2 °F 35.9 °F 39.2 °F 100% 30.07 in 1.5 mi Variable 4.6 mph - N/A   Overcast
8:29 AM 39.2 °F 37.0 °F 39.2 °F 100% 30.07 in 3.0 mi Variable 3.5 mph - N/A   Overcast
8:35 AM 39.2 °F 37.0 °F 39.2 °F 100% 30.07 in 1.8 mi Variable 3.5 mph - N/A   Overcast
8:43 AM 39.2 °F 35.9 °F 39.2 °F 100% 30.07 in 3.0 mi Variable 4.6 mph - N/A   Mostly Cloudy
8:53 AM 39.9 °F 36.7 °F 39.0 °F 97% 29.91 in 10.0 mi Variable 4.6 mph - N/A   Overcast
9:53 AM 39.9 °F 37.8 °F 37.9 °F 93% 29.91 in 10.0 mi Variable 3.5 mph - N/A   Overcast
10:05 AM 39.2 °F 35.9 °F 37.4 °F 93% 30.07 in 10.0 mi Variable 4.6 mph - N/A   Overcast
10:35 AM 42.8 °F 40.1 °F 37.4 °F 81% 30.08 in 9.0 mi Variable 4.6 mph - 0.00 in Rain Light Rain
10:45 AM 41.0 °F 36.4 °F 37.4 °F 87% 30.08 in 9.0 mi Variable 6.9 mph - 0.00 in Rain Light Rain
10:53 AM 43.0 °F 38.8 °F 37.0 °F 80% 29.92 in 10.0 mi Variable 6.9 mph - 0.00 in   Overcast
11:07 AM 44.6 °F 38.8 °F 35.6 °F 71% 30.08 in 10.0 mi WSW 11.5 mph 18.4 mph N/A   Mostly Cloudy
11:53 AM 46.9 °F - 35.1 °F 63% 29.90 in 10.0 mi Variable 4.6 mph 20.7 mph N/A   Scattered Clouds
12:53 PM 48.0 °F - 33.1 °F 56% 29.93 in 10.0 mi WSW 8.1 mph 17.3 mph N/A   Partly Cloudy
1:53 PM 48.9 °F - 28.0 °F 44% 29.92 in 10.0 mi WSW 11.5 mph 21.9 mph N/A   Unknown
2:53 PM 48.9 °F - 28.0 °F 44% 29.93 in 10.0 mi WSW 9.2 mph 21.9 mph N/A   Clear
3:53 PM 48.9 °F - 25.0 °F 39% 29.94 in 10.0 mi WSW 13.8 mph 26.5 mph N/A   Clear
4:53 PM 48.0 °F - 28.0 °F 46% 29.99 in 10.0 mi WSW 9.2 mph - N/A   Partly Cloudy
5:53 PM 48.0 °F - 27.0 °F 44% 29.95 in 10.0 mi Variable 6.9 mph - N/A   Clear
6:53 PM 46.9 °F - 21.9 °F 37% 29.95 in 10.0 mi Variable 5.8 mph 19.6 mph N/A   Clear
7:53 PM 45.0 °F 40.6 °F 21.0 °F 39% 30.00 in 10.0 mi WSW 8.1 mph - N/A   Clear
8:53 PM 44.1 °F 40.1 °F 24.1 °F 45% 29.99 in 10.0 mi WSW 6.9 mph - N/A   Clear
9:53 PM 43.0 °F 38.8 °F 27.0 °F 53% 30.00 in 10.0 mi WSW 6.9 mph - N/A   Clear
10:53 PM 43.0 °F 39.5 °F 25.0 °F 49% 30.02 in 10.0 mi Variable 5.8 mph - N/A   Clear
11:53 PM 42.1 °F 38.4 °F 25.0 °F 51% 29.97 in 10.0 mi SW 5.8 mph - N/A   Clear